When you browse on this site, cookies collect data to enhance your experience and personalize the content and advertising you see.
Visit our Privacy Policy to learn more. By continuing to use the site, you agree to this use of cookies and data.
  • In United Kingdom
  • List of Countries
  • For 7 days
  • Water Temperature
  • Weather Map
  • Weather Widgets
  • user-avatar
    Login

    Hourly Weather Balho

    Today, 19 September, Thursday

    Time Temperature Precipitation Wind Pressure Humidity
    00:00 +36°C° 0.1 mm 3 mps 733 mmHg 50%
    01:00 +36°C° 0.4 mm 2 mps 733 mmHg 50%
    02:00 +35°C° 0.4 mm 2 mps 732 mmHg 51%
    03:00 +34°C° 0 mm 1 mps 732 mmHg 53%
    04:00 +34°C° 0.1 mm 1 mps 733 mmHg 54%
    05:00 +34°C° 0.1 mm 1 mps 733 mmHg 54%
    06:00 +34°C° 0.1 mm 1 mps 734 mmHg 54%
    07:00 +34°C° 0 mm 1 mps 734 mmHg 52%
    08:00 +35°C° 0 mm 1 mps 734 mmHg 49%
    09:00 +36°C° 0 mm 1 mps 734 mmHg 47%
    10:00 +37°C° 0 mm 1 mps 734 mmHg 42%
    11:00 +39°C° 0 mm 1 mps 734 mmHg 37%
    12:00 +40°C° 0 mm 1 mps 733 mmHg 33%
    13:00 +41°C° 0 mm 1 mps 732 mmHg 30%
    14:00 +41°C° 0 mm 1 mps 732 mmHg 27%
    15:00 +42°C° 0 mm 1 mps 731 mmHg 24%
    16:00 +42°C° 0 mm 1 mps 731 mmHg 25%
    17:00 +41°C° 0 mm 1 mps 731 mmHg 25%
    18:00 +41°C° 0 mm 1 mps 731 mmHg 26%
    19:00 +40°C° 0 mm 1 mps 732 mmHg 29%
    20:00 +40°C° 0 mm 2 mps 732 mmHg 33%
    21:00 +39°C° 0 mm 2 mps 732 mmHg 36%
    22:00 +38°C° 0 mm 2 mps 732 mmHg 41%
    23:00 +37°C° 0 mm 2 mps 732 mmHg 45%

    Tomorrow, 20 September, Friday

    Time Temperature Precipitation Wind Pressure Humidity
    00:00 +36°C° 0 mm 2 mps 732 mmHg 49%
    01:00 +36°C° 0 mm 2 mps 732 mmHg 49%
    02:00 +36°C° 0 mm 2 mps 732 mmHg 49%
    03:00 +35°C° 0 mm 1 mps 731 mmHg 50%
    04:00 +35°C° 0 mm 1 mps 732 mmHg 50%
    05:00 +34°C° 0 mm 1 mps 732 mmHg 50%
    06:00 +32°C° 0 mm 0 mps 733 mmHg 50%
    07:00 +33°C° 0 mm 0 mps 733 mmHg 47%
    08:00 +36°C° 0 mm 1 mps 733 mmHg 44%
    09:00 +36°C° 0 mm 1 mps 733 mmHg 41%
    10:00 +39°C° 0 mm 1 mps 733 mmHg 37%
    11:00 +40°C° 0 mm 1 mps 733 mmHg 33%
    12:00 +41°C° 0 mm 1 mps 733 mmHg 30%
    13:00 +41°C° 0 mm 1 mps 732 mmHg 27%
    14:00 +42°C° 0 mm 2 mps 731 mmHg 24%
    15:00 +42°C° 0 mm 2 mps 730 mmHg 21%
    16:00 +42°C° 0 mm 2 mps 730 mmHg 21%
    17:00 +42°C° 0 mm 2 mps 730 mmHg 22%
    18:00 +42°C° 0 mm 2 mps 731 mmHg 22%
    19:00 +41°C° 0 mm 2 mps 731 mmHg 27%
    20:00 +40°C° 0 mm 3 mps 731 mmHg 31%
    21:00 +39°C° 0 mm 3 mps 732 mmHg 36%
    22:00 +39°C° 0 mm 3 mps 731 mmHg 36%
    23:00 +39°C° 0 mm 2 mps 731 mmHg 37%

    Day after tomorrow, 21 September, Saturday

    Time Temperature Precipitation Wind Pressure Humidity
    00:00 +38°C° 0 mm 2 mps 731 mmHg 38%
    01:00 +38°C° 0.1 mm 2 mps 731 mmHg 37%
    02:00 +37°C° 0.1 mm 1 mps 730 mmHg 37%
    03:00 +37°C° 0.1 mm 1 mps 730 mmHg 36%
    04:00 +36°C° 0 mm 1 mps 731 mmHg 38%
    05:00 +36°C° 0 mm 1 mps 731 mmHg 39%
    06:00 +34°C° 0 mm 0 mps 732 mmHg 41%
    07:00 +36°C° 0 mm 1 mps 732 mmHg 39%
    08:00 +37°C° 0 mm 1 mps 733 mmHg 38%
    09:00 +38°C° 0 mm 2 mps 733 mmHg 37%
    10:00 +39°C° 0 mm 2 mps 733 mmHg 34%
    11:00 +40°C° 0 mm 1 mps 732 mmHg 30%
    12:00 +41°C° 0 mm 1 mps 732 mmHg 27%
    13:00 +42°C° 0 mm 1 mps 731 mmHg 24%
    14:00 +42°C° 0 mm 1 mps 731 mmHg 22%
    15:00 +43°C° 0 mm 2 mps 730 mmHg 20%
    16:00 +43°C° 0 mm 2 mps 730 mmHg 21%
    17:00 +42°C° 0 mm 2 mps 730 mmHg 21%
    18:00 +42°C° 0 mm 2 mps 729 mmHg 22%
    19:00 +42°C° 0 mm 2 mps 730 mmHg 23%
    20:00 +41°C° 0 mm 2 mps 731 mmHg 25%
    21:00 +42°C° 0 mm 3 mps 731 mmHg 27%
    22:00 +40°C° 0 mm 2 mps 731 mmHg 30%
    23:00 +39°C° 0 mm 2 mps 731 mmHg 34%

    22 September, Sunday

    Time Temperature Precipitation Wind Pressure Humidity
    00:00 +38°C° 0 mm 2 mps 731 mmHg 37%
    01:00 +38°C° 0 mm 2 mps 731 mmHg 40%
    02:00 +36°C° 0 mm 1 mps 731 mmHg 44%
    03:00 +35°C° 0 mm 1 mps 730 mmHg 47%
    04:00 +35°C° 0 mm 1 mps 731 mmHg 47%
    05:00 +35°C° 0 mm 1 mps 732 mmHg 47%
    06:00 +33°C° 0 mm 0 mps 732 mmHg 47%
    07:00 +36°C° 0 mm 1 mps 733 mmHg 43%
    08:00 +37°C° 0 mm 2 mps 733 mmHg 39%
    09:00 +38°C° 0 mm 2 mps 734 mmHg 35%
    10:00 +39°C° 0 mm 2 mps 733 mmHg 33%
    11:00 +40°C° 0 mm 1 mps 733 mmHg 30%
    12:00 +41°C° 0 mm 1 mps 732 mmHg 28%
    13:00 +41°C° 0 mm 1 mps 731 mmHg 26%
    14:00 +42°C° 0 mm 1 mps 731 mmHg 24%
    15:00 +39°C° 0 mm 0 mps 730 mmHg 22%
    16:00 +42°C° 0 mm 2 mps 730 mmHg 23%
    17:00 +42°C° 0 mm 3 mps 730 mmHg 24%
    18:00 +42°C° 0 mm 4 mps 730 mmHg 25%
    19:00 +42°C° 0 mm 3 mps 731 mmHg 26%
    20:00 +41°C° 0 mm 2 mps 731 mmHg 26%
    21:00 +40°C° 0 mm 1 mps 732 mmHg 27%
    22:00 +40°C° 0 mm 1 mps 732 mmHg 30%
    23:00 +39°C° 0 mm 1 mps 732 mmHg 32%

    23 September, Monday

    Time Temperature Precipitation Wind Pressure Humidity
    00:00 +39°C° 0 mm 1 mps 732 mmHg 35%
    01:00 +37°C° 0 mm 1 mps 732 mmHg 39%
    02:00 +36°C° 0 mm 1 mps 731 mmHg 43%
    03:00 +35°C° 0 mm 1 mps 731 mmHg 47%
    04:00 +35°C° 0 mm 1 mps 732 mmHg 48%
    05:00 +35°C° 0 mm 1 mps 732 mmHg 49%
    06:00 +34°C° 0 mm 1 mps 733 mmHg 50%
    07:00 +35°C° 0 mm 1 mps 733 mmHg 46%
    08:00 +36°C° 0 mm 1 mps 734 mmHg 42%
    09:00 +38°C° 0 mm 2 mps 734 mmHg 38%
    10:00 +39°C° 0 mm 1 mps 734 mmHg 34%
    11:00 +40°C° 0 mm 1 mps 733 mmHg 31%
    12:00 +41°C° 0 mm 1 mps 733 mmHg 27%
    13:00 +42°C° 0 mm 1 mps 732 mmHg 25%
    14:00 +42°C° 0 mm 1 mps 731 mmHg 22%
    15:00 +43°C° 0 mm 1 mps 731 mmHg 20%
    16:00 +43°C° 0 mm 2 mps 731 mmHg 20%
    17:00 +42°C° 0 mm 2 mps 731 mmHg 20%
    18:00 +42°C° 0 mm 2 mps 731 mmHg 20%
    19:00 +42°C° 0 mm 2 mps 731 mmHg 22%
    20:00 +42°C° 0 mm 3 mps 731 mmHg 24%
    21:00 +42°C° 0 mm 3 mps 732 mmHg 26%
    22:00 +40°C° 0 mm 3 mps 732 mmHg 28%
    23:00 +39°C° 0 mm 3 mps 732 mmHg 31%

    24 September, Tuesday

    Time Temperature Precipitation Wind Pressure Humidity
    00:00 +38°C° 0 mm 3 mps 731 mmHg 33%
    01:00 +38°C° 0 mm 2 mps 731 mmHg 33%
    02:00 +37°C° 0 mm 2 mps 731 mmHg 33%
    03:00 +36°C° 0 mm 1 mps 731 mmHg 33%
    04:00 +35°C° 0 mm 1 mps 731 mmHg 35%
    05:00 +35°C° 0 mm 1 mps 732 mmHg 38%
    06:00 +34°C° 0 mm 1 mps 732 mmHg 40%
    07:00 +35°C° 0 mm 1 mps 733 mmHg 37%
    08:00 +36°C° 0 mm 1 mps 733 mmHg 34%
    09:00 +37°C° 0 mm 1 mps 734 mmHg 32%
    10:00 +39°C° 0 mm 1 mps 733 mmHg 30%
    11:00 +40°C° 0 mm 1 mps 733 mmHg 28%
    12:00 +41°C° 0 mm 1 mps 732 mmHg 26%
    13:00 +42°C° 0 mm 1 mps 732 mmHg 23%
    14:00 +43°C° 0 mm 2 mps 731 mmHg 20%
    15:00 +43°C° 0 mm 2 mps 730 mmHg 17%
    16:00 +44°C° 0 mm 3 mps 730 mmHg 18%
    17:00 +44°C° 0 mm 3 mps 730 mmHg 20%
    18:00 +43°C° 0 mm 3 mps 730 mmHg 21%
    19:00 +42°C° 0 mm 3 mps 731 mmHg 25%
    20:00 +41°C° 0 mm 4 mps 731 mmHg 29%
    21:00 +40°C° 0 mm 4 mps 731 mmHg 34%
    22:00 +38°C° 0 mm 3 mps 731 mmHg 34%
    23:00 +38°C° 0 mm 2 mps 731 mmHg 33%
    Show more